Flag for Trinidad and Tobago Weather past 2 weeks in Port of Spain, Trinidad and Tobago

Now
75 °F

Passing clouds.


Feels Like: 75 °F
Forecast: 78 / 87 °F
Wind: 6 mph from Southeast

Location: Piarco International Airport - Trinidad

Current Time: Apr 2, 2015 at 4:16:11 AM

Latest Report: Apr 2, 2015 at 3:00 AM


Visibility: N/A

Pressure: 29.92 "Hg

Humidity: 89%

Dew point: 72 °F

Location of Port of SpainLocation

Historic Weather in Port of Spain — Graph

°F

Port of Spain temperature yesterday

Maximum temperature yesterday: 90 °F (at 1:00 PM)
Minimum temperature yesterday: 73 °F (at 12:00 AM)
Average temperature yesterday: 81 °F

Past Weeks' High & Low Weather Summary

 TemperatureHumidityPressure
High93 °F (Mar 24, 2:00 PM)94% (Mar 18, 3:00 AM)30.07 "Hg (Mar 18, 3:00 AM)
Low72 °F (Mar 21, 2:00 AM)41% (Apr 1, 3:00 PM)29.83 "Hg (Mar 18, 4:00 PM)
Average80 °F75%29.95 "Hg
* Reported Mar 18 3:00 AM — Apr 2 3:00 AM, Port of Spain, Weather by CustomWeather, © 2015

Note: Actual official high and low records may vary slightly from our data, if they occured in-between our weather recording intervals... More about our weather records

Advertising

Port of Spain weather history for previous 24 hours

 ConditionsComfort  
Time TempWeatherWind HumidityBarometerVisibility
3:00 AM
Thu, Apr 2
75 °FPassing clouds.6 mph89%29.92 "HgN/A
2:00 AM75 °FPassing clouds.6 mph89%29.95 "HgN/A
1:00 AM75 °FPassing clouds.No wind89%29.95 "HgN/A
12:00 AM75 °FPassing clouds.No wind89%29.98 "HgN/A
11:00 PM
Wed, Apr 1
77 °FPassing clouds.No wind83%30.01 "HgN/A
10:00 PM77 °FPassing clouds.7 mph83%30.01 "HgN/A
9:00 PM79 °FPassing clouds.6 mph79%29.98 "HgN/A
8:00 PM79 °FPassing clouds.6 mph79%29.95 "HgN/A
7:00 PM79 °FPassing clouds.7 mph74%29.95 "HgN/A
6:00 PM82 °FPassing clouds.10 mph62%29.92 "HgN/A
5:00 PM86 °FPassing clouds.13 mph52%29.92 "HgN/A
4:00 PM88 °FPassing clouds.16 mph49%29.92 "HgN/A
3:00 PM90 °FPassing clouds.16 mph41%29.95 "HgN/A
2:00 PM88 °FPartly sunny.16 mph49%29.95 "HgN/A
1:00 PM90 °FPassing clouds.16 mph46%29.98 "HgN/A
12:00 PM88 °FPassing clouds.15 mph49%30.01 "HgN/A
11:00 AM88 °FScattered clouds.16 mph49%30.01 "HgN/A
10:00 AM88 °FPassing clouds.15 mph52%30.04 "HgN/A
9:00 AM86 °FPassing clouds.18 mph55%30.04 "HgN/A
8:00 AM82 °FPassing clouds.12 mph70%30.01 "HgN/A
7:00 AM75 °FPassing clouds.3 mph83%29.98 "HgN/A
6:00 AM73 °FPassing clouds.6 mph89%29.95 "HgN/A
5:00 AM73 °FPassing clouds.5 mph83%29.95 "HgN/A
Weather by CustomWeather, © 2015

See weather overviewHow to use our weather pages